TimeCDT,TemperatureF,Dew PointF,Humidity,Sea Level PressureIn,VisibilityMPH,Wind Direction,Wind SpeedMPH,Gust SpeedMPH,PrecipitationIn,Events,Conditions,WindDirDegrees,DateUTC
12:15 AM,69.8,55.4,60,29.73,10.0,South,10.4,-,N/A,,Overcast,170,2013-04-09 05:15:00
12:35 AM,69.8,55.4,60,29.74,10.0,South,11.5,-,N/A,,Overcast,170,2013-04-09 05:35:00
12:55 AM,69.8,55.4,60,29.74,10.0,South,10.4,18.4,N/A,,Overcast,170,2013-04-09 05:55:00
1:15 AM,69.8,55.4,60,29.74,10.0,SSE,13.8,-,N/A,,Overcast,160,2013-04-09 06:15:00
1:35 AM,69.8,55.4,60,29.74,10.0,South,11.5,-,N/A,,Overcast,170,2013-04-09 06:35:00
1:55 AM,69.8,55.4,60,29.74,10.0,South,15.0,-,N/A,,Overcast,170,2013-04-09 06:55:00
2:15 AM,69.8,55.4,60,29.74,10.0,South,15.0,21.9,N/A,,Overcast,170,2013-04-09 07:15:00
2:35 AM,68.0,55.4,64,29.73,10.0,South,9.2,-,N/A,,Overcast,170,2013-04-09 07:35:00
2:55 AM,66.2,55.4,68,29.73,10.0,South,13.8,20.7,N/A,,Overcast,170,2013-04-09 07:55:00
3:15 AM,66.2,55.4,68,29.73,10.0,South,9.2,18.4,N/A,,Overcast,170,2013-04-09 08:15:00
3:35 AM,66.2,55.4,68,29.72,10.0,South,15.0,20.7,N/A,,Scattered Clouds,170,2013-04-09 08:35:00
3:55 AM,66.2,55.4,68,29.71,10.0,South,13.8,20.7,N/A,,Clear,170,2013-04-09 08:55:00
4:15 AM,64.4,55.4,73,29.71,10.0,South,13.8,21.9,N/A,,Clear,170,2013-04-09 09:15:00
4:35 AM,64.4,55.4,73,29.72,10.0,South,12.7,20.7,N/A,,Clear,170,2013-04-09 09:35:00
4:55 AM,64.4,55.4,73,29.72,10.0,South,10.4,-,N/A,,Clear,170,2013-04-09 09:55:00
5:15 AM,64.4,53.6,68,29.73,10.0,South,8.1,16.1,N/A,,Clear,180,2013-04-09 10:15:00
5:35 AM,64.4,53.6,68,29.73,10.0,South,9.2,-,N/A,,Partly Cloudy,180,2013-04-09 10:35:00
5:55 AM,62.6,53.6,72,29.74,10.0,South,10.4,16.1,N/A,,Scattered Clouds,170,2013-04-09 10:55:00
6:15 AM,64.4,53.6,68,29.74,10.0,SSE,10.4,-,N/A,,Mostly Cloudy,160,2013-04-09 11:15:00
6:35 AM,64.4,53.6,68,29.74,10.0,SSE,11.5,-,N/A,,Overcast,160,2013-04-09 11:35:00
6:55 AM,64.4,53.6,68,29.74,10.0,SSE,12.7,-,N/A,,Overcast,160,2013-04-09 11:55:00
7:15 AM,64.4,55.4,73,29.74,10.0,SSE,13.8,18.4,N/A,,Overcast,160,2013-04-09 12:15:00
7:35 AM,64.4,55.4,73,29.75,10.0,SSE,10.4,-,N/A,,Overcast,160,2013-04-09 12:35:00
7:55 AM,64.4,55.4,73,29.76,10.0,South,10.4,16.1,N/A,,Overcast,170,2013-04-09 12:55:00
8:15 AM,66.2,55.4,68,29.76,10.0,South,9.2,16.1,N/A,,Overcast,180,2013-04-09 13:15:00
8:35 AM,66.2,57.2,73,29.77,10.0,South,8.1,-,N/A,,Overcast,170,2013-04-09 13:35:00
8:55 AM,66.2,57.2,73,29.77,10.0,South,10.4,-,N/A,,Overcast,170,2013-04-09 13:55:00
9:15 AM,66.2,57.2,73,29.78,10.0,South,11.5,16.1,N/A,,Overcast,180,2013-04-09 14:15:00
9:35 AM,66.2,57.2,73,29.78,10.0,South,9.2,-,N/A,,Overcast,170,2013-04-09 14:35:00
9:55 AM,68.0,57.2,68,29.78,10.0,South,12.7,19.6,N/A,,Overcast,180,2013-04-09 14:55:00
10:15 AM,69.8,57.2,64,29.78,10.0,South,13.8,20.7,N/A,,Overcast,180,2013-04-09 15:15:00
10:35 AM,69.8,59.0,68,29.78,10.0,South,11.5,17.3,N/A,,Overcast,170,2013-04-09 15:35:00
10:55 AM,69.8,59.0,68,29.79,10.0,South,15.0,18.4,N/A,,Overcast,180,2013-04-09 15:55:00
11:15 AM,69.8,60.8,73,29.79,10.0,South,16.1,23.0,N/A,,Overcast,190,2013-04-09 16:15:00
11:35 AM,71.6,60.8,69,29.79,10.0,South,15.0,20.7,N/A,,Mostly Cloudy,180,2013-04-09 16:35:00
11:55 AM,71.6,60.8,69,29.79,10.0,South,13.8,24.2,N/A,,Overcast,170,2013-04-09 16:55:00
12:15 PM,71.6,60.8,69,29.79,10.0,South,15.0,-,N/A,,Overcast,180,2013-04-09 17:15:00
12:35 PM,73.4,60.8,65,29.78,10.0,SSE,12.7,17.3,N/A,,Overcast,160,2013-04-09 17:35:00
12:55 PM,73.4,60.8,65,29.78,10.0,South,12.7,21.9,N/A,,Overcast,170,2013-04-09 17:55:00
1:15 PM,75.2,60.8,61,29.77,10.0,SSE,16.1,-,N/A,,Overcast,160,2013-04-09 18:15:00
1:35 PM,75.2,60.8,61,29.77,10.0,South,16.1,21.9,N/A,,Overcast,170,2013-04-09 18:35:00
1:55 PM,73.4,60.8,65,29.77,10.0,South,13.8,-,N/A,,Overcast,170,2013-04-09 18:55:00
2:15 PM,75.2,60.8,61,29.77,10.0,SSE,12.7,21.9,N/A,,Overcast,160,2013-04-09 19:15:00
2:35 PM,75.2,60.8,61,29.78,10.0,South,11.5,16.1,N/A,,Mostly Cloudy,190,2013-04-09 19:35:00
2:55 PM,75.2,60.8,61,29.77,10.0,SSE,12.7,-,N/A,,Scattered Clouds,160,2013-04-09 19:55:00
3:15 PM,75.2,60.8,61,29.76,10.0,SSE,15.0,19.6,N/A,,Mostly Cloudy,150,2013-04-09 20:15:00
3:35 PM,75.2,60.8,61,29.74,10.0,SSE,19.6,24.2,N/A,,Overcast,160,2013-04-09 20:35:00
3:55 PM,78.8,60.8,54,29.74,10.0,SSE,16.1,24.2,N/A,,Overcast,150,2013-04-09 20:55:00
4:15 PM,77.0,60.8,57,29.74,10.0,SSE,11.5,-,N/A,,Scattered Clouds,160,2013-04-09 21:15:00
4:35 PM,75.2,59.0,57,29.74,10.0,SSE,10.4,-,N/A,,Scattered Clouds,150,2013-04-09 21:35:00
4:55 PM,75.2,59.0,57,29.73,10.0,SSE,13.8,18.4,N/A,,Scattered Clouds,160,2013-04-09 21:55:00
5:15 PM,80.6,60.8,51,29.73,10.0,SSE,13.8,-,N/A,,Overcast,160,2013-04-09 22:15:00
5:35 PM,77.0,59.0,54,29.74,10.0,SSE,8.1,-,N/A,,Mostly Cloudy,160,2013-04-09 22:35:00
5:55 PM,77.0,59.0,54,29.73,10.0,SSE,9.2,-,N/A,,Mostly Cloudy,160,2013-04-09 22:55:00
6:15 PM,77.0,59.0,54,29.73,10.0,SSE,10.4,16.1,N/A,,Overcast,150,2013-04-09 23:15:00
6:35 PM,77.0,57.2,50,29.74,10.0,SSE,12.7,19.6,N/A,,Mostly Cloudy,150,2013-04-09 23:35:00
6:55 PM,77.0,57.2,50,29.74,10.0,SSE,11.5,-,N/A,,Overcast,150,2013-04-09 23:55:00
7:15 PM,75.2,57.2,53,29.74,10.0,SE,15.0,-,N/A,,Overcast,140,2013-04-10 00:15:00
7:35 PM,75.2,57.2,53,29.74,10.0,SSE,12.7,-,N/A,,Mostly Cloudy,150,2013-04-10 00:35:00
7:55 PM,75.2,55.4,50,29.75,10.0,SE,11.5,16.1,N/A,,Mostly Cloudy,140,2013-04-10 00:55:00
8:15 PM,73.4,55.4,53,29.75,10.0,SE,8.1,-,N/A,,Scattered Clouds,140,2013-04-10 01:15:00
8:35 PM,73.4,55.4,53,29.76,10.0,SSE,9.2,-,N/A,,Mostly Cloudy,150,2013-04-10 01:35:00
8:55 PM,71.6,55.4,57,29.76,10.0,SSE,9.2,-,N/A,,Partly Cloudy,150,2013-04-10 01:55:00
9:15 PM,71.6,55.4,57,29.76,10.0,SE,9.2,-,N/A,,Partly Cloudy,140,2013-04-10 02:15:00
9:55 PM,71.6,55.4,57,29.76,10.0,SSE,9.2,-,N/A,,Scattered Clouds,150,2013-04-10 02:55:00
10:15 PM,71.6,55.4,57,29.75,10.0,SSE,9.2,-,N/A,,Scattered Clouds,160,2013-04-10 03:15:00
10:35 PM,71.6,57.2,60,29.74,10.0,SSE,8.1,-,N/A,,Partly Cloudy,160,2013-04-10 03:35:00
10:55 PM,73.4,57.2,57,29.74,10.0,South,13.8,17.3,N/A,,Clear,180,2013-04-10 03:55:00
11:15 PM,73.4,59.0,61,29.73,10.0,South,15.0,23.0,N/A,,Clear,180,2013-04-10 04:15:00
11:35 PM,73.4,59.0,61,29.74,10.0,South,12.7,23.0,N/A,,Clear,180,2013-04-10 04:35:00
11:55 PM,73.4,60.8,65,29.73,10.0,South,13.8,21.9,N/A,,Clear,170,2013-04-10 04:55:00